VLG012 LGIO-LGKF

Flight info

Callsign VLG012
Flight time 0h 23m
Altitude 14000
Route ROTSA DCT ENESI/N0363F130
Aircraft A320/M-SDE3FGHIRWY/LB1

Departure

Time 2026-04-21 15:38
Airport Ioannina King Pyrrhus National Airport (LGIO)

Arrival

Time 2026-04-21 16:01
Airport Kefallinia Airport (LGKF)
Time Latitude Longitude Altitude Speed Heading
2026-04-21 15:14 39.69519 20.82019 1565 ft 0 kts 140°
2026-04-21 15:30 39.69520 20.82018 1565 ft 1 kts 140°
2026-04-21 15:30 39.69538 20.81998 1565 ft 4 kts 140°
2026-04-21 15:31 39.69559 20.81975 1565 ft 4 kts 140°
2026-04-21 15:31 39.69560 20.81975 1565 ft 0 kts 140°
2026-04-21 15:33 39.69560 20.81978 1565 ft 0 kts 120°
2026-04-21 15:33 39.69564 20.81983 1565 ft 1 kts 55°
2026-04-21 15:33 39.69589 20.82024 1565 ft 10 kts 70°
2026-04-21 15:33 39.69546 20.82122 1565 ft 17 kts 141°
2026-04-21 15:34 39.69464 20.82208 1565 ft 12 kts 140°
2026-04-21 15:34 39.69458 20.82304 1565 ft 12 kts 57°
2026-04-21 15:34 39.69506 20.82394 1565 ft 12 kts 81°
2026-04-21 15:34 39.69451 20.82480 1566 ft 13 kts 142°
2026-04-21 15:35 39.69375 20.82556 1567 ft 14 kts 142°
2026-04-21 15:35 39.69291 20.82641 1567 ft 16 kts 142°
2026-04-21 15:35 39.69200 20.82736 1568 ft 17 kts 141°
2026-04-21 15:35 39.69101 20.82839 1568 ft 19 kts 143°
2026-04-21 15:36 39.68989 20.82952 1568 ft 21 kts 140°
2026-04-21 15:36 39.68912 20.82989 1567 ft 5 kts 166°
2026-04-21 15:36 39.68900 20.83041 1567 ft 9 kts 41°
2026-04-21 15:36 39.68957 20.82984 1568 ft 10 kts 323°
2026-04-21 15:37 39.68968 20.82973 1568 ft 10 kts 323°
2026-04-21 15:37 39.69227 20.82709 1568 ft 82 kts 322°
2026-04-21 15:37 39.69827 20.82096 1568 ft 134 kts 321°
2026-04-21 15:37 39.70621 20.81275 1881 ft 148 kts 321°
2026-04-21 15:38 39.71429 20.80454 2504 ft 148 kts 319°
2026-04-21 15:38 39.72157 20.79465 2987 ft 156 kts 309°
2026-04-21 15:38 39.72878 20.78376 3433 ft 167 kts 309°
2026-04-21 15:38 39.73642 20.77122 3789 ft 186 kts 305°
2026-04-21 15:39 39.74477 20.75737 4168 ft 201 kts 307°
2026-04-21 15:39 39.75386 20.74260 4590 ft 218 kts 306°
2026-04-21 15:39 39.76361 20.72717 5392 ft 221 kts 306°
2026-04-21 15:39 39.77345 20.71169 6284 ft 222 kts 307°
2026-04-21 15:40 39.78216 20.69444 6719 ft 242 kts 288°
2026-04-21 15:40 39.78372 20.67255 7522 ft 239 kts 261°
2026-04-21 15:40 39.77845 20.65294 8850 ft 226 kts 241°
2026-04-21 15:40 39.76768 20.63796 9864 ft 231 kts 218°
2026-04-21 15:41 39.75241 20.63021 10645 ft 244 kts 193°
2026-04-21 15:41 39.73470 20.62939 11053 ft 270 kts 186°
2026-04-21 15:41 39.71501 20.62968 11355 ft 295 kts 184°
2026-04-21 15:41 39.69362 20.63031 11606 ft 319 kts 183°
2026-04-21 15:42 39.67057 20.63110 11791 ft 342 kts 183°
2026-04-21 15:42 39.64629 20.63196 11985 ft 362 kts 182°
2026-04-21 15:42 39.62062 20.63286 12581 ft 371 kts 183°
2026-04-21 15:42 39.59451 20.63375 13269 ft 376 kts 183°
2026-04-21 15:43 39.56842 20.63460 13796 ft 381 kts 183°
2026-04-21 15:43 39.54173 20.63539 13941 ft 383 kts 183°
2026-04-21 15:43 39.51428 20.63609 13979 ft 404 kts 183°
2026-04-21 15:43 39.48555 20.63681 13973 ft 418 kts 182°
2026-04-21 15:44 39.45661 20.63764 13974 ft 422 kts 182°
2026-04-21 15:44 39.42720 20.63852 13977 ft 424 kts 182°
2026-04-21 15:44 39.39762 20.63937 13977 ft 424 kts 182°
2026-04-21 15:44 39.36809 20.64019 13980 ft 424 kts 183°
2026-04-21 15:45 39.33856 20.64100 13982 ft 424 kts 182°
2026-04-21 15:45 39.30893 20.64183 13988 ft 425 kts 183°
2026-04-21 15:45 39.27943 20.64265 13983 ft 424 kts 183°
2026-04-21 15:45 39.25023 20.64346 13979 ft 423 kts 183°
2026-04-21 15:46 39.22059 20.64427 13972 ft 424 kts 183°
2026-04-21 15:46 39.19099 20.64509 13972 ft 424 kts 183°
2026-04-21 15:46 39.16170 20.64590 13971 ft 425 kts 183°
2026-04-21 15:46 39.13198 20.64675 13972 ft 425 kts 182°
2026-04-21 15:47 39.10278 20.64758 13973 ft 424 kts 183°
2026-04-21 15:47 39.07314 20.64843 13972 ft 424 kts 183°
2026-04-21 15:47 39.04340 20.64927 13971 ft 424 kts 183°
2026-04-21 15:47 39.01413 20.65012 13959 ft 425 kts 182°
2026-04-21 15:48 38.98436 20.65098 13960 ft 425 kts 182°
2026-04-21 15:48 38.95514 20.65180 13961 ft 425 kts 182°
2026-04-21 15:48 38.92540 20.65260 13963 ft 425 kts 183°
2026-04-21 15:48 38.89600 20.65107 13963 ft 420 kts 191°
2026-04-21 15:49 38.86789 20.64339 13963 ft 415 kts 201°
2026-04-21 15:49 38.84110 20.62971 13966 ft 410 kts 211°
2026-04-21 15:49 38.81618 20.61200 13982 ft 408 kts 213°
2026-04-21 15:49 38.79161 20.59430 13984 ft 408 kts 213°
2026-04-21 15:50 38.76666 20.57639 13988 ft 409 kts 213°
2026-04-21 15:50 38.74178 20.55856 13989 ft 409 kts 213°
2026-04-21 15:50 38.71752 20.54118 13986 ft 393 kts 213°
2026-04-21 15:50 38.69416 20.52455 13879 ft 373 kts 213°
2026-04-21 15:51 38.67161 20.50842 12982 ft 376 kts 213°
2026-04-21 15:51 38.64902 20.49224 12722 ft 361 kts 213°
2026-04-21 15:51 38.62775 20.47706 12576 ft 344 kts 213°
2026-04-21 15:51 38.60713 20.46239 12448 ft 330 kts 213°
2026-04-21 15:52 38.58765 20.44854 12319 ft 317 kts 213°
2026-04-21 15:52 38.56868 20.43501 12175 ft 304 kts 214°
2026-04-21 15:52 38.55663 20.42641 11866 ft 297 kts 214°
2026-04-21 15:52 38.53272 20.40931 11060 ft 291 kts 213°
2026-04-21 15:53 38.51537 20.39691 10466 ft 288 kts 213°
2026-04-21 15:53 38.49796 20.38448 9868 ft 285 kts 213°
2026-04-21 15:53 38.48067 20.37212 9214 ft 282 kts 212°
2026-04-21 15:53 38.46356 20.35991 8568 ft 279 kts 212°
2026-04-21 15:54 38.44673 20.34793 7962 ft 277 kts 212°
2026-04-21 15:54 38.42990 20.33597 7398 ft 273 kts 212°
2026-04-21 15:54 38.41355 20.32437 6889 ft 270 kts 212°
2026-04-21 15:54 38.39711 20.31272 6365 ft 268 kts 211°
2026-04-21 15:55 38.38078 20.30110 5863 ft 274 kts 212°
2026-04-21 15:55 38.36419 20.28931 5608 ft 269 kts 211°
2026-04-21 15:55 38.34722 20.27986 5260 ft 272 kts 194°
2026-04-21 15:55 38.32834 20.28060 4929 ft 277 kts 166°
2026-04-21 15:56 38.31168 20.29271 4351 ft 280 kts 136°
2026-04-21 15:56 38.30188 20.31413 3815 ft 280 kts 106°
2026-04-21 15:56 38.29696 20.33719 3599 ft 260 kts 114°
2026-04-21 15:56 38.28787 20.35579 3471 ft 237 kts 135°
2026-04-21 15:57 38.27567 20.36831 3372 ft 215 kts 149°
2026-04-21 15:57 38.26372 20.37829 3280 ft 201 kts 150°
2026-04-21 15:57 38.25212 20.38806 3189 ft 198 kts 149°
2026-04-21 15:57 38.24058 20.39773 2948 ft 195 kts 149°
2026-04-21 15:58 38.22972 20.40683 2665 ft 183 kts 150°
2026-04-21 15:58 38.21942 20.41549 2405 ft 172 kts 149°
2026-04-21 15:58 38.20973 20.42363 2170 ft 162 kts 149°
2026-04-21 15:58 38.20358 20.42879 2015 ft 158 kts 150°
2026-04-21 15:59 38.19457 20.43632 1795 ft 151 kts 149°
2026-04-21 15:59 38.18340 20.44564 1491 ft 139 kts 150°
2026-04-21 15:59 38.17818 20.45024 1359 ft 137 kts 146°
2026-04-21 15:59 38.16826 20.46015 1103 ft 136 kts 146°
2026-04-21 16:00 38.16301 20.46467 961 ft 134 kts 153°
2026-04-21 16:00 38.15490 20.47057 680 ft 137 kts 149°
2026-04-21 16:00 38.14710 20.47742 511 ft 135 kts 145°
2026-04-21 16:00 38.13938 20.48412 348 ft 133 kts 147°
2026-04-21 16:01 38.13180 20.49052 166 ft 131 kts 147°
2026-04-21 16:01 38.12443 20.49675 58 ft 117 kts 147°
2026-04-21 16:01 38.11954 20.50086 64 ft 42 kts 146°
2026-04-21 16:01 38.11800 20.50205 62 ft 24 kts 143°
2026-04-21 16:02 38.11739 20.50302 62 ft 9 kts 71°
2026-04-21 16:02 38.11785 20.50348 61 ft 8 kts 27°
2026-04-21 16:02 38.11837 20.50348 66 ft 9 kts 336°
2026-04-21 16:02 38.11866 20.50332 64 ft 3 kts 352°
2026-04-21 16:03 38.11877 20.50336 63 ft 3 kts 31°
2026-04-21 16:03 38.11889 20.50370 64 ft 5 kts 58°
2026-04-21 16:03 38.11904 20.50399 68 ft 2 kts 56°
2026-04-21 16:03 38.11906 20.50404 68 ft 0 kts 56°